Content
SEND FEEDBACK

Daily
Averages
Monthly
Summary
United States of America

REDDING, CALIFORNIA


Home > North America > United States > California
Elevation: 535 feet     Latitude: 40 31N     Longitude: 122 18W

WEATHER
 
SELECT A DAY
Number of Records: 187,331;   Date Range: 1/1/95 - 9/3/14
 
SHARE

PRINT THIS DATA

[ ← Previous Day ]
WEATHER ALMANAC - JULY 3, 2013
[ Next Day → ]
[ °C ]   °F
Weather ElementAverageHighLow
Temperature95.3 °F111.9 °F (2:53 pm)82 °F (6:53 am)
Dewpoint58.3 °F64 °F (6:53 am)51.1 °F (5:53 pm)
Humidity30.8 %54 % (6:53 am)15 % (2:53 pm)
Barometer29.78 in29.84 in (6:53 am)29.70 in (4:53 pm)
Wind Speed6.6 mph18.4 mph (5:53 pm)
Wind Gust27.6 mph (5:53 pm)
Weather ElementAverage
Visibility10 mi
Wind DirectionWNW (278.7 °)

Weather ElementTotal
Precipitation---
Cooling Degree Days32 (Base 65)
Growing Degree Days47 (Base 50)
Averaged from 23 records on July 3, 2013
WEATHER CONDITIONS BREAKOUT
WIND DIRECTION BREAKOUT
WEATHER BY HOUR - JULY 3, 2013
[ °C ]   °F
Local TimeTemperatureDewpointHumidityBarometerVisibilityWind DirectionWind SpeedGust SpeedPrecipitationEventsConditions
1:53 AM86.0 °F62.1 °F44 %29.83 in10.0 miNW (320°)4.6 mphClear
2:53 AM86.0 °F61.0 °F43 %29.83 in10.0 miNNW (330°)3.5 mphClear
3:53 AM82.9 °F62.1 °F49 %29.83 in10.0 miCalmClear
4:53 AM84.0 °F61.0 °F46 %29.83 in10.0 miNorth (350°)6.9 mphClear
5:53 AM82.9 °F61.0 °F47 %29.83 in10.0 miNorth (350°)3.5 mphClear
6:53 AM82.0 °F64.0 °F54 %29.84 in10.0 miCalmClear
7:53 AM90.0 °F62.1 °F39 %29.84 in10.0 miCalmClear
8:53 AM93.0 °F60.1 °F33 %29.84 in10.0 miNorth (360°)10.4 mphClear
9:53 AM97.0 °F60.1 °F29 %29.83 in10.0 miNNW (340°)9.2 mphClear
10:53 AM100.9 °F59.0 °F25 %29.81 in10.0 miNorth (350°)9.2 mphClear
11:53 AM102.9 °F59.0 °F23 %29.79 in10.0 miNorth (360°)9.2 mphClear
12:53 PM108.0 °F57.9 °F19 %29.77 in10.0 miNorth (10°)9.2 mphClear
1:53 PM109.9 °F55.9 °F17 %29.75 in10.0 miNorth (360°)10.4 mph16.1 mphClear
2:53 PM111.9 °F54.0 °F15 %29.72 in10.0 miNorth (360°)6.9 mphClear
3:53 PM107.1 °F57.0 °F19 %29.71 in10.0 miNorth (350°)5.8 mphClear
4:53 PM102.9 °F61.0 °F25 %29.70 in10.0 miNW (310°)5.8 mphClear
5:53 PM100.0 °F51.1 °F19 %29.72 in10.0 miNW (320°)18.4 mph27.6 mphClear
6:53 PM97.0 °F53.1 °F23 %29.70 in10.0 miNNW (330°)4.6 mphClear
7:53 PM98.1 °F55.9 °F24 %29.73 in10.0 miWNW (300°)4.6 mphClear
8:53 PM93.9 °F57.9 °F30 %29.73 in10.0 miNorth (360°)6.9 mphClear
9:53 PM91.0 °F55.9 °F30 %29.75 in10.0 miWNW (300°)6.9 mphClear
10:53 PM91.9 °F54.0 °F27 %29.75 in10.0 miWNW (300°)8.1 mphClear
11:53 PM91.9 °F55.0 °F29 %29.75 in10.0 miNorth (350°)6.9 mphClear
Hourly data recorded from KRDD, located miles away from Redding, California







STORIES FROM OUR PARTNERS